Nausori, Fiji

11:43 AM +12 on June 27, 2017 (GMT +1200)
Nausori International

Weather History for NFNA - January, 2003

Change the Weather History Date:

Thursday, January 9, 2003

  Actual Average Record
Temperature  
Mean Temperature 83 °F -  
Max Temperature 89 °F 87 °F - ()
Min Temperature 77 °F 75 °F - ()
Cooling Degree Days 18    
Growing Degree Days 33 (Base 50)    
Moisture  
Dew Point 76 °F    
Average Humidity 80    
Maximum Humidity 94    
Minimum Humidity 62    
Precipitation  
Precipitation 0.00 in 0.40 in - ()
Sea Level Pressure  
Sea Level Pressure 29.68 in    
Wind  
Wind Speed 1 mph ()    
Max Wind Speed 6 mph    
Max Gust Speed -    
Visibility 6.8 miles    
Events Rain , Thunderstorm    
T = Trace of Precipitation, MM = Missing Value Source: Averaged Metar Reports

Daily Weather History Graph

Daily Weather History Graph

Search for Another Location

Airport or City:

Trip Planner

Search our weather history database for the weather conditions in past years. The results will help you decide how hot, cold, wet, or windy it might be!

Date:

Astronomy

Jan. 09, 2003 Rise Set
Actual Time 5:37 AM +12 6:46 PM +12
Civil Twilight 5:14 AM +12 7:10 PM +12
Nautical Twilight 4:45 AM +12 7:39 PM +12
Astronomical Twilight 4:16 AM +12 8:08 PM +12
Moon 10:59 AM +12 (1/9) 11:26 PM +12 (1/9)
Length of Visible Light 13h 56m
Length of Day
13h 08m
Waxing Crescent, 35% of the Moon is Illuminated
Jan 9
Waxing Crescent
Jan 11
First Quarter
Jan 18
Full
Jan 25
Last Quarter
Feb 1
New

Hourly Weather History & Observations

Time (+12) Temp. Heat Index Dew Point Humidity Pressure Visibility Wind Dir Wind Speed Gust Speed Precip Events Conditions
12:00 AM 78.8 °F - 77.0 °F 94% 29.71 in 24.9 mi Calm Calm - N/A   Scattered Clouds
1:00 AM 78.8 °F - 77.0 °F 94% 29.68 in 24.9 mi Calm Calm - N/A   Overcast
2:00 AM 78.8 °F - 77.0 °F 94% 29.68 in 24.9 mi Calm Calm - N/A   Mostly Cloudy
3:00 AM 78.8 °F - 77.0 °F 94% 29.65 in 24.9 mi Calm Calm - N/A   Scattered Clouds
4:00 AM 78.8 °F - 77.0 °F 94% 29.65 in 24.9 mi Calm Calm - N/A   Mostly Cloudy
5:00 AM 77.0 °F - 75.2 °F 94% 29.68 in 24.9 mi Calm Calm - N/A   Partly Cloudy
6:00 AM 77.0 °F - 75.2 °F 94% 29.71 in 31.1 mi Calm Calm - N/A   Scattered Clouds
7:00 AM 78.8 °F - 77.0 °F 94% 29.71 in 31.1 mi WNW 5.8 mph - N/A   Partly Cloudy
8:00 AM 82.4 °F 92.4 °F 78.8 °F 89% 29.71 in 31.1 mi Calm Calm - N/A   Partly Cloudy
9:00 AM 84.2 °F 94.1 °F 77.0 °F 79% 29.71 in 31.1 mi Calm Calm - N/A   Partly Cloudy
10:00 AM 87.8 °F 99.7 °F 77.0 °F 70% 29.68 in 31.1 mi NNW 3.5 mph - N/A   Scattered Clouds
11:00 AM 89.6 °F 99.8 °F 75.2 °F 62% 29.68 in 31.1 mi WNW 3.5 mph - N/A   Scattered Clouds
12:00 PM 89.6 °F 102.2 °F 77.0 °F 66% 29.65 in 31.1 mi South 3.5 mph - N/A   Scattered Clouds
1:00 PM 89.6 °F 102.2 °F 77.0 °F 66% 29.65 in 31.1 mi South 3.5 mph - N/A   Scattered Clouds
2:00 PM 89.6 °F 102.2 °F 77.0 °F 66% 29.65 in 31.1 mi SSE 5.8 mph - N/A   Scattered Clouds
3:00 PM 89.6 °F 102.2 °F 77.0 °F 66% 29.62 in 31.1 mi South 3.5 mph - N/A   Scattered Clouds
4:00 PM 86.0 °F 91.8 °F 71.6 °F 62% 29.62 in 31.1 mi South 5.8 mph - N/A   Mostly Cloudy
5:00 PM 86.0 °F 91.8 °F 71.6 °F 62% 29.62 in 31.1 mi South 5.8 mph - N/A   Scattered Clouds
6:00 PM 86.0 °F 95.1 °F 75.2 °F 70% 29.65 in 31.1 mi South 3.5 mph - N/A   Mostly Cloudy
7:00 PM 84.2 °F 94.1 °F 77.0 °F 79% 29.68 in 31.1 mi Calm Calm - N/A   Mostly Cloudy
7:15 PM 84.2 °F 94.1 °F 77.0 °F 79% 29.68 in 5.0 mi Calm Calm - N/A Rain , Thunderstorm Light Thunderstorms and Rain
7:20 PM 84.2 °F 94.1 °F 77.0 °F 79% 29.68 in 5.0 mi Calm Calm - N/A Rain , Thunderstorm Light Thunderstorms and Rain
8:00 PM 84.2 °F 94.1 °F 77.0 °F 79% 29.68 in 31.1 mi Calm Calm - N/A   Mostly Cloudy
9:00 PM 84.2 °F 94.1 °F 77.0 °F 79% 29.71 in 5.0 mi Calm Calm - N/A Thunderstorm Light Thunderstorm
10:00 PM 82.4 °F 90.9 °F 77.0 °F 84% 29.74 in 12.4 mi Calm Calm - N/A   Mostly Cloudy
11:00 PM 77.0 °F - 73.4 °F 89% 29.74 in 24.9 mi Calm Calm - N/A   Mostly Cloudy